WZZ3403 EBCI-UGKO

Flight info

Callsign WZZ3403
Flight time 4h 0m
Altitude 35000
Route SOPOK Y863 OGLOR DCT BOMBI DCT BARSU DCT DEXIT DCT PESAT DCT TEGRI DCT UDROS DCT BAMUP UM859 KARDE DCT ROLIN DCT MAQQO
Aircraft A21N/M-SDE1E2E3FGIJ1J4RWXY/LB1

Departure

Time 2026-04-25 11:36
Airport Brussels South Charleroi Airport (EBCI)

Arrival

Time 2026-04-25 15:36
Airport David the Builder Kutaisi International Airport (UGKO)
Time Latitude Longitude Altitude Speed Heading
2026-04-25 10:52 50.46939 4.47346 628 ft 0 kts 335°
2026-04-25 11:10 50.46938 4.47346 618 ft 0 kts 335°
2026-04-25 11:27 50.46938 4.47347 618 ft 0 kts 335°
2026-04-25 11:29 50.46925 4.47356 632 ft 4 kts 337°
2026-04-25 11:29 50.46901 4.47363 632 ft 4 kts 18°
2026-04-25 11:29 50.46881 4.47340 632 ft 4 kts 60°
2026-04-25 11:30 50.46876 4.47325 632 ft 1 kts 65°
2026-04-25 11:31 50.46876 4.47324 632 ft 0 kts 65°
2026-04-25 11:33 50.46876 4.47325 632 ft 1 kts 65°
2026-04-25 11:33 50.46883 4.47350 632 ft 4 kts 66°
2026-04-25 11:33 50.46900 4.47410 630 ft 8 kts 66°
2026-04-25 11:34 50.46927 4.47503 620 ft 11 kts 66°
2026-04-25 11:34 50.46936 4.47565 618 ft 6 kts 102°
2026-04-25 11:34 50.46901 4.47624 629 ft 9 kts 153°
2026-04-25 11:34 50.46839 4.47666 624 ft 11 kts 155°
2026-04-25 11:35 50.46764 4.47719 621 ft 12 kts 156°
2026-04-25 11:35 50.46686 4.47689 625 ft 13 kts 232°
2026-04-25 11:35 50.46620 4.47467 623 ft 46 kts 245°
2026-04-25 11:35 50.46374 4.46620 626 ft 122 kts 245°
2026-04-25 11:36 50.45942 4.45151 695 ft 164 kts 247°
2026-04-25 11:36 50.45477 4.43545 1375 ft 160 kts 249°
2026-04-25 11:36 50.45034 4.41918 2040 ft 162 kts 248°
2026-04-25 11:36 50.44547 4.40232 2411 ft 181 kts 247°
2026-04-25 11:37 50.43994 4.38323 2869 ft 203 kts 247°
2026-04-25 11:37 50.43385 4.36213 3419 ft 224 kts 247°
2026-04-25 11:37 50.42708 4.33848 3832 ft 257 kts 247°
2026-04-25 11:37 50.41944 4.31195 4470 ft 272 kts 247°
2026-04-25 11:38 50.41187 4.28452 5569 ft 274 kts 252°
2026-04-25 11:38 50.40903 4.25530 6567 ft 272 kts 277°
2026-04-25 11:38 50.41454 4.22722 7454 ft 271 kts 302°
2026-04-25 11:38 50.42726 4.20578 8283 ft 270 kts 327°
2026-04-25 11:39 50.44370 4.19238 9209 ft 271 kts 337°
2026-04-25 11:39 50.46141 4.18136 10047 ft 275 kts 342°
2026-04-25 11:39 50.48062 4.17647 10578 ft 291 kts
2026-04-25 11:39 50.50112 4.18318 10884 ft 313 kts 17°
2026-04-25 11:40 50.52071 4.20000 11346 ft 328 kts 39°
2026-04-25 11:40 50.53503 4.22830 12067 ft 336 kts 62°
2026-04-25 11:40 50.54133 4.26376 12823 ft 343 kts 85°
2026-04-25 11:40 50.53876 4.30124 13536 ft 350 kts 105°
2026-04-25 11:41 50.53115 4.33786 14269 ft 355 kts 109°
2026-04-25 11:41 50.52317 4.37503 14918 ft 361 kts 108°
2026-04-25 11:41 50.51552 4.41268 15691 ft 361 kts 107°
2026-04-25 11:41 50.50814 4.45043 16475 ft 363 kts 107°
2026-04-25 11:42 50.50089 4.48856 17133 ft 367 kts 106°
2026-04-25 11:42 50.49359 4.52733 17821 ft 371 kts 106°
2026-04-25 11:42 50.48637 4.56582 18595 ft 371 kts 106°
2026-04-25 11:42 50.47903 4.60487 19227 ft 374 kts 106°
2026-04-25 11:43 50.47161 4.64454 19700 ft 381 kts 106°
2026-04-25 11:43 50.46409 4.68477 20182 ft 387 kts 106°
2026-04-25 11:43 50.45642 4.72554 20771 ft 391 kts 106°
2026-04-25 11:43 50.44865 4.76662 21326 ft 395 kts 106°
2026-04-25 11:44 50.44076 4.80802 21849 ft 399 kts 106°
2026-04-25 11:44 50.43274 4.84997 22374 ft 404 kts 106°
2026-04-25 11:44 50.42474 4.89194 22864 ft 409 kts 106°
2026-04-25 11:44 50.41651 4.93498 23356 ft 414 kts 106°
2026-04-25 11:45 50.40818 4.97853 23823 ft 419 kts 106°
2026-04-25 11:45 50.39969 5.02278 24247 ft 422 kts 106°
2026-04-25 11:45 50.39130 5.06642 24688 ft 425 kts 106°
2026-04-25 11:45 50.38277 5.11096 25142 ft 428 kts 106°
2026-04-25 11:46 50.37411 5.15585 25579 ft 430 kts 106°
2026-04-25 11:46 50.36540 5.20089 26003 ft 433 kts 106°
2026-04-25 11:46 50.35659 5.24619 26417 ft 436 kts 106°
2026-04-25 11:46 50.34769 5.29178 26830 ft 439 kts 106°
2026-04-25 11:47 50.33877 5.33761 27236 ft 441 kts 106°
2026-04-25 11:47 50.32988 5.38326 27632 ft 444 kts 106°
2026-04-25 11:47 50.32082 5.42965 28029 ft 446 kts 106°
2026-04-25 11:47 50.31167 5.47627 28390 ft 449 kts 106°
2026-04-25 11:48 50.30245 5.52304 28761 ft 451 kts 106°
2026-04-25 11:48 50.29311 5.57015 29138 ft 454 kts 106°
2026-04-25 11:48 50.28387 5.61681 29470 ft 457 kts 106°
2026-04-25 11:48 50.27442 5.66451 29801 ft 459 kts 106°
2026-04-25 11:49 50.26490 5.71233 30154 ft 462 kts 106°
2026-04-25 11:49 50.25534 5.76039 30449 ft 464 kts 105°
2026-04-25 11:49 50.24677 5.80902 30729 ft 465 kts 103°
2026-04-25 11:49 50.23855 5.85792 31032 ft 467 kts 103°
2026-04-25 11:50 50.23022 5.90712 31326 ft 468 kts 104°
2026-04-25 11:50 50.22187 5.95645 31645 ft 469 kts 104°
2026-04-25 11:50 50.21350 6.00565 32012 ft 468 kts 104°
2026-04-25 11:50 50.20527 6.05400 32401 ft 466 kts 104°
2026-04-25 11:51 50.19693 6.10289 32782 ft 464 kts 104°
2026-04-25 11:51 50.18878 6.15155 33136 ft 462 kts 102°
2026-04-25 11:51 50.18397 6.20105 33455 ft 460 kts 92°
2026-04-25 11:51 50.18487 6.25082 33750 ft 458 kts 84°
2026-04-25 11:52 50.18790 6.29977 34049 ft 457 kts 83°
2026-04-25 11:52 50.19124 6.34919 34302 ft 457 kts 82°
2026-04-25 11:52 50.19448 6.39858 34534 ft 457 kts 83°
2026-04-25 11:52 50.19762 6.44786 34785 ft 456 kts 83°
2026-04-25 11:53 50.20071 6.49725 34999 ft 456 kts 83°
2026-04-25 11:53 50.20367 6.54602 35173 ft 457 kts 83°
2026-04-25 11:53 50.20864 6.64485 35167 ft 456 kts 89°
2026-04-25 11:54 50.20350 6.74398 35166 ft 457 kts 95°
2026-04-25 11:55 50.19378 6.89145 35170 ft 457 kts 94°
2026-04-25 11:55 50.18747 6.99052 35171 ft 457 kts 94°
2026-04-25 11:56 50.18111 7.08888 35171 ft 457 kts 94°
2026-04-25 11:56 50.17460 7.18780 35173 ft 458 kts 94°
2026-04-25 11:57 50.16801 7.28658 35170 ft 457 kts 94°
2026-04-25 11:57 50.16137 7.38487 35171 ft 457 kts 94°
2026-04-25 11:58 50.15472 7.48363 35162 ft 457 kts 94°
2026-04-25 11:58 50.14786 7.58130 35154 ft 457 kts 94°
2026-04-25 11:59 50.14101 7.68007 35150 ft 457 kts 94°
2026-04-25 11:59 50.13407 7.77877 35156 ft 457 kts 94°
2026-04-25 12:00 50.12343 7.92606 35159 ft 457 kts 94°
2026-04-25 12:01 50.11264 8.07385 35151 ft 457 kts 94°
2026-04-25 12:01 50.10532 8.17250 35145 ft 457 kts 94°
2026-04-25 12:02 50.09421 8.31968 35149 ft 457 kts 94°
2026-04-25 12:02 50.08662 8.41807 35143 ft 458 kts 94°
2026-04-25 12:03 50.07896 8.51669 35143 ft 459 kts 94°
2026-04-25 12:03 50.07130 8.61478 35143 ft 459 kts 95°
2026-04-25 12:04 50.06342 8.71371 35153 ft 460 kts 95°
2026-04-25 12:04 50.05554 8.81276 35139 ft 460 kts 95°
2026-04-25 12:05 50.04777 8.91137 35134 ft 460 kts 94°
2026-04-25 12:05 50.04005 9.00951 35128 ft 460 kts 95°
2026-04-25 12:06 50.03205 9.10824 35122 ft 460 kts 95°
2026-04-25 12:06 50.02396 9.20664 35122 ft 460 kts 95°
2026-04-25 12:07 50.01582 9.30572 35120 ft 460 kts 95°
2026-04-25 12:07 50.00773 9.40381 35118 ft 460 kts 95°
2026-04-25 12:08 49.99951 9.50283 35119 ft 460 kts 95°
2026-04-25 12:08 49.99129 9.60091 35119 ft 460 kts 95°
2026-04-25 12:09 49.98286 9.69966 35123 ft 460 kts 95°
2026-04-25 12:09 49.97446 9.79756 35120 ft 460 kts 95°
2026-04-25 12:10 49.96579 9.89635 35121 ft 460 kts 95°
2026-04-25 12:10 49.95716 9.99433 35122 ft 460 kts 96°
2026-04-25 12:11 49.94839 10.09270 35120 ft 460 kts 96°
2026-04-25 12:11 49.93955 10.19123 35120 ft 460 kts 96°
2026-04-25 12:12 49.93216 10.27302 35121 ft 460 kts 96°
2026-04-25 12:12 49.91961 10.38766 35115 ft 463 kts 105°
2026-04-25 12:13 49.89315 10.47843 35125 ft 465 kts 117°
2026-04-25 12:13 49.86320 10.56767 35118 ft 466 kts 117°
2026-04-25 12:14 49.83371 10.65658 35108 ft 466 kts 117°
2026-04-25 12:14 49.80410 10.74615 35104 ft 467 kts 117°
2026-04-25 12:15 49.77935 10.82060 35105 ft 467 kts 117°
2026-04-25 12:15 49.74949 10.91009 35098 ft 468 kts 117°
2026-04-25 12:16 49.71975 10.99928 35102 ft 468 kts 118°
2026-04-25 12:16 49.68975 11.08883 35105 ft 469 kts 118°
2026-04-25 12:17 49.65961 11.17827 35103 ft 469 kts 118°
2026-04-25 12:17 49.62951 11.26708 35104 ft 469 kts 118°
2026-04-25 12:18 49.59925 11.35656 35093 ft 469 kts 118°
2026-04-25 12:18 49.56892 11.44571 35098 ft 470 kts 119°
2026-04-25 12:19 49.52345 11.57872 35084 ft 470 kts 119°
2026-04-25 12:20 49.49291 11.66770 35078 ft 470 kts 119°
2026-04-25 12:20 49.46235 11.75672 35088 ft 470 kts 120°
2026-04-25 12:21 49.43185 11.84496 35088 ft 469 kts 120°
2026-04-25 12:21 49.40105 11.93372 35088 ft 469 kts 120°
2026-04-25 12:22 49.37044 12.02160 35089 ft 469 kts 120°
2026-04-25 12:22 49.33964 12.10989 35088 ft 469 kts 120°
2026-04-25 12:23 49.30876 12.19799 35087 ft 469 kts 120°
2026-04-25 12:23 49.27789 12.28595 35083 ft 468 kts 120°
2026-04-25 12:24 49.24683 12.37375 35078 ft 468 kts 120°
2026-04-25 12:24 49.21598 12.46091 35074 ft 468 kts 121°
2026-04-25 12:25 49.18490 12.54848 35073 ft 468 kts 121°
2026-04-25 12:25 49.15381 12.63585 35070 ft 468 kts 121°
2026-04-25 12:26 49.12252 12.72335 35074 ft 468 kts 121°
2026-04-25 12:26 49.09137 12.81008 35068 ft 468 kts 121°
2026-04-25 12:27 49.05997 12.89740 35070 ft 469 kts 121°
2026-04-25 12:27 49.02842 12.98468 35069 ft 469 kts 121°
2026-04-25 12:28 48.99713 13.07108 35064 ft 469 kts 121°
2026-04-25 12:28 48.96535 13.15835 35067 ft 470 kts 121°
2026-04-25 12:29 48.93361 13.24539 35068 ft 470 kts 121°
2026-04-25 12:29 48.90203 13.33176 35061 ft 470 kts 122°
2026-04-25 12:30 48.87009 13.41853 35068 ft 470 kts 122°
2026-04-25 12:30 48.83813 13.50540 35062 ft 471 kts 122°
2026-04-25 12:31 48.80614 13.59185 35063 ft 471 kts 122°
2026-04-25 12:31 48.77395 13.67830 35060 ft 471 kts 122°
2026-04-25 12:32 48.74498 13.76803 35052 ft 474 kts 116°
2026-04-25 12:32 48.71841 13.85878 35059 ft 474 kts 116°
2026-04-25 12:33 48.69148 13.95015 35056 ft 474 kts 116°
2026-04-25 12:33 48.66451 14.04121 35054 ft 475 kts 116°
2026-04-25 12:34 48.63752 14.13227 35052 ft 475 kts 116°
2026-04-25 12:34 48.61060 14.22294 35048 ft 475 kts 116°
2026-04-25 12:35 48.58337 14.31410 35044 ft 475 kts 117°
2026-04-25 12:35 48.55594 14.40512 35051 ft 475 kts 117°
2026-04-25 12:36 48.52848 14.49607 35055 ft 476 kts 117°
2026-04-25 12:36 48.50096 14.58676 35046 ft 476 kts 117°
2026-04-25 12:37 48.47357 14.67693 35044 ft 476 kts 117°
2026-04-25 12:37 48.44592 14.76761 35046 ft 475 kts 117°
2026-04-25 12:38 48.41820 14.85817 35044 ft 475 kts 117°
2026-04-25 12:38 48.39067 14.94795 35043 ft 475 kts 117°
2026-04-25 12:39 48.36289 15.03823 35055 ft 475 kts 117°
2026-04-25 12:39 48.33497 15.12832 35057 ft 475 kts 117°
2026-04-25 12:40 48.30717 15.21786 35032 ft 475 kts 117°
2026-04-25 12:40 48.27909 15.30789 35034 ft 475 kts 117°
2026-04-25 12:41 48.25093 15.39778 35022 ft 474 kts 117°
2026-04-25 12:41 48.22296 15.48680 35018 ft 474 kts 117°
2026-04-25 12:42 48.19473 15.57640 35015 ft 475 kts 117°
2026-04-25 12:42 48.17692 15.63270 35022 ft 475 kts 117°
2026-04-25 12:43 48.14864 15.72234 35017 ft 475 kts 117°
2026-04-25 12:43 48.10616 15.85581 35010 ft 475 kts 118°
2026-04-25 12:44 48.07756 15.94499 35013 ft 475 kts 118°
2026-04-25 12:45 48.03489 16.07799 35005 ft 475 kts 118°
2026-04-25 12:45 47.99185 16.21132 34997 ft 474 kts 118°
2026-04-25 12:46 47.96309 16.30010 34994 ft 474 kts 118°
2026-04-25 12:46 47.93439 16.38829 34994 ft 474 kts 118°
2026-04-25 12:47 47.90536 16.47711 34996 ft 475 kts 118°
2026-04-25 12:47 47.87651 16.56506 34990 ft 475 kts 118°
2026-04-25 12:48 47.84730 16.65388 34994 ft 476 kts 118°
2026-04-25 12:48 47.81816 16.74242 34990 ft 476 kts 118°
2026-04-25 12:49 47.78972 16.82820 34983 ft 476 kts 118°
2026-04-25 12:49 47.76036 16.91654 34993 ft 476 kts 118°
2026-04-25 12:50 47.73096 17.00484 34998 ft 476 kts 118°
2026-04-25 12:50 47.70174 17.09238 35017 ft 475 kts 118°
2026-04-25 12:51 47.67244 17.18054 35012 ft 476 kts 118°
2026-04-25 12:51 47.64312 17.26839 35019 ft 476 kts 118°
2026-04-25 12:52 47.61389 17.35584 35019 ft 476 kts 118°
2026-04-25 12:52 47.58435 17.44390 35018 ft 476 kts 118°
2026-04-25 12:53 47.55475 17.53171 35022 ft 476 kts 118°
2026-04-25 12:53 47.52519 17.61895 35025 ft 476 kts 118°
2026-04-25 12:54 47.49542 17.70661 35016 ft 476 kts 118°
2026-04-25 12:54 47.46576 17.79375 35018 ft 476 kts 118°
2026-04-25 12:55 47.44092 17.86649 35020 ft 477 kts 118°
2026-04-25 12:55 47.40589 17.96884 35013 ft 477 kts 118°
2026-04-25 12:56 47.37580 18.05611 35009 ft 477 kts 118°
2026-04-25 12:56 47.34589 18.14282 35007 ft 477 kts 118°
2026-04-25 12:57 47.31577 18.22993 35005 ft 477 kts 118°
2026-04-25 12:57 47.28553 18.31693 35001 ft 477 kts 118°
2026-04-25 12:58 47.25523 18.40379 34993 ft 477 kts 118°
2026-04-25 12:58 47.22480 18.49074 34993 ft 476 kts 118°
2026-04-25 12:59 47.19460 18.57680 34992 ft 476 kts 118°
2026-04-25 12:59 47.16409 18.66354 34986 ft 476 kts 118°
2026-04-25 13:00 47.14388 18.72072 34981 ft 476 kts 118°
2026-04-25 13:00 47.10317 18.83577 34980 ft 476 kts 118°
2026-04-25 13:01 47.07251 18.92197 34979 ft 476 kts 118°
2026-04-25 13:01 47.04181 19.00812 34980 ft 476 kts 118°
2026-04-25 13:02 47.01124 19.09347 34974 ft 476 kts 118°
2026-04-25 13:02 46.98036 19.17946 34970 ft 476 kts 118°
2026-04-25 13:03 46.95463 19.25087 34974 ft 476 kts 118°
2026-04-25 13:03 46.92362 19.33666 34981 ft 477 kts 118°
2026-04-25 13:04 46.89247 19.42270 34982 ft 477 kts 118°
2026-04-25 13:04 46.86132 19.50845 34985 ft 477 kts 118°
2026-04-25 13:05 46.83033 19.59344 34987 ft 477 kts 118°
2026-04-25 13:05 46.79910 19.67881 34986 ft 477 kts 118°
2026-04-25 13:06 46.76774 19.76420 34987 ft 476 kts 118°
2026-04-25 13:06 46.73637 19.84948 34986 ft 476 kts 119°
2026-04-25 13:07 46.70515 19.93410 34984 ft 476 kts 119°
2026-04-25 13:07 46.67362 20.01916 34976 ft 476 kts 119°
2026-04-25 13:08 46.64207 20.10411 34971 ft 476 kts 119°
2026-04-25 13:08 46.61066 20.18834 34976 ft 476 kts 119°
2026-04-25 13:09 46.57898 20.27299 34978 ft 476 kts 119°
2026-04-25 13:09 46.54724 20.35750 34979 ft 476 kts 119°
2026-04-25 13:10 46.51550 20.44195 34976 ft 476 kts 119°
2026-04-25 13:10 46.48392 20.52568 34977 ft 476 kts 119°
2026-04-25 13:11 46.45193 20.61016 34977 ft 476 kts 119°
2026-04-25 13:11 46.42007 20.69387 34976 ft 475 kts 119°
2026-04-25 13:12 46.38805 20.77796 34976 ft 475 kts 119°
2026-04-25 13:12 46.36138 20.84785 34972 ft 476 kts 119°
2026-04-25 13:13 46.32396 20.94539 34983 ft 476 kts 119°
2026-04-25 13:13 46.29175 21.02913 34986 ft 476 kts 119°
2026-04-25 13:14 46.26012 21.11317 34987 ft 475 kts 115°
2026-04-25 13:14 46.23303 21.19991 34995 ft 475 kts 113°
2026-04-25 13:15 46.20601 21.28710 34995 ft 475 kts 113°
2026-04-25 13:15 46.17897 21.37366 34995 ft 475 kts 113°
2026-04-25 13:16 46.15171 21.46065 34990 ft 475 kts 113°
2026-04-25 13:16 46.12437 21.54756 34987 ft 476 kts 113°
2026-04-25 13:17 46.09710 21.63401 34980 ft 475 kts 113°
2026-04-25 13:17 46.06964 21.72093 34978 ft 475 kts 114°
2026-04-25 13:18 46.04215 21.80749 34976 ft 475 kts 113°
2026-04-25 13:18 46.01477 21.89355 34977 ft 475 kts 114°
2026-04-25 13:19 45.98709 21.98008 34971 ft 475 kts 114°
2026-04-25 13:19 45.96408 22.05191 34968 ft 475 kts 114°
2026-04-25 13:20 45.93182 22.15208 34977 ft 475 kts 114°
2026-04-25 13:20 45.90327 22.23788 34974 ft 476 kts 119°
2026-04-25 13:21 45.87034 22.32030 34980 ft 475 kts 116°
2026-04-25 13:21 45.84143 22.40497 34985 ft 474 kts 114°
2026-04-25 13:22 45.81353 22.49087 34979 ft 474 kts 114°
2026-04-25 13:23 45.77152 22.61940 34980 ft 474 kts 114°
2026-04-25 13:23 45.74682 22.70587 34979 ft 472 kts 107°
2026-04-25 13:24 45.72242 22.79340 34988 ft 473 kts 112°
2026-04-25 13:24 45.69448 22.87888 34989 ft 473 kts 114°
2026-04-25 13:25 45.66632 22.96329 34983 ft 473 kts 114°
2026-04-25 13:25 45.63796 23.04834 34984 ft 473 kts 114°
2026-04-25 13:26 45.60963 23.13309 34983 ft 472 kts 114°
2026-04-25 13:26 45.58138 23.21734 34982 ft 472 kts 114°
2026-04-25 13:27 45.55290 23.30200 34983 ft 472 kts 114°
2026-04-25 13:27 45.52459 23.38589 34974 ft 472 kts 114°
2026-04-25 13:28 45.49602 23.47027 34983 ft 472 kts 114°
2026-04-25 13:28 45.46741 23.55449 34992 ft 472 kts 114°
2026-04-25 13:29 45.43866 23.63887 34981 ft 472 kts 114°
2026-04-25 13:29 45.41010 23.72242 34987 ft 472 kts 114°
2026-04-25 13:30 45.36683 23.84849 34983 ft 471 kts 114°
2026-04-25 13:31 45.32347 23.97425 34981 ft 471 kts 114°
2026-04-25 13:31 45.29468 24.05742 34983 ft 471 kts 114°
2026-04-25 13:32 45.26573 24.14079 34989 ft 470 kts 114°
2026-04-25 13:32 45.23673 24.22407 34991 ft 470 kts 114°
2026-04-25 13:33 45.20790 24.30659 34983 ft 469 kts 114°
2026-04-25 13:33 45.17885 24.38947 34978 ft 468 kts 114°
2026-04-25 13:34 45.15001 24.47226 34991 ft 467 kts 114°
2026-04-25 13:34 45.12106 24.55419 34991 ft 467 kts 114°
2026-04-25 13:35 45.09196 24.63635 34989 ft 466 kts 114°
2026-04-25 13:35 45.06287 24.71849 34989 ft 466 kts 114°
2026-04-25 13:36 45.03369 24.80042 34984 ft 466 kts 114°
2026-04-25 13:36 45.00449 24.88221 34986 ft 465 kts 114°
2026-04-25 13:37 44.97540 24.96352 34984 ft 465 kts 114°
2026-04-25 13:37 44.94628 25.04468 34976 ft 465 kts 114°
2026-04-25 13:38 44.91695 25.12624 34976 ft 465 kts 114°
2026-04-25 13:38 44.88755 25.20765 34979 ft 465 kts 114°
2026-04-25 13:39 44.85811 25.28892 34981 ft 464 kts 114°
2026-04-25 13:39 44.82879 25.36947 34984 ft 464 kts 114°
2026-04-25 13:40 44.79934 25.45047 34983 ft 464 kts 114°
2026-04-25 13:40 44.76976 25.53145 34980 ft 463 kts 115°
2026-04-25 13:41 44.74035 25.61165 34985 ft 463 kts 115°
2026-04-25 13:41 44.71068 25.69233 34985 ft 463 kts 115°
2026-04-25 13:42 44.68127 25.77206 34989 ft 462 kts 115°
2026-04-25 13:42 44.65161 25.85224 34989 ft 461 kts 115°
2026-04-25 13:43 44.62207 25.93186 34993 ft 461 kts 115°
2026-04-25 13:43 44.59234 26.01176 34995 ft 460 kts 115°
2026-04-25 13:44 44.56269 26.09123 34988 ft 459 kts 115°
2026-04-25 13:44 44.53321 26.17003 34968 ft 459 kts 115°
2026-04-25 13:45 44.50406 26.24771 34952 ft 459 kts 115°
2026-04-25 13:45 44.47415 26.32717 34950 ft 458 kts 115°
2026-04-25 13:46 44.44450 26.40574 34969 ft 458 kts 115°
2026-04-25 13:46 44.41466 26.48458 34977 ft 457 kts 116°
2026-04-25 13:47 44.38500 26.56273 34977 ft 457 kts 116°
2026-04-25 13:47 44.35533 26.64148 34974 ft 456 kts 114°
2026-04-25 13:48 44.32844 26.72190 34976 ft 456 kts 114°
2026-04-25 13:48 44.29964 26.80007 34977 ft 456 kts 116°
2026-04-25 13:49 44.27474 26.86501 34972 ft 456 kts 116°
2026-04-25 13:49 44.23977 26.95580 34975 ft 455 kts 116°
2026-04-25 13:50 44.21459 27.02105 34969 ft 455 kts 116°
2026-04-25 13:50 44.18471 27.09827 34970 ft 455 kts 117°
2026-04-25 13:51 44.15180 27.17379 34966 ft 455 kts 119°
2026-04-25 13:51 44.12044 27.25049 34968 ft 455 kts 117°
2026-04-25 13:52 44.09039 27.32788 34966 ft 454 kts 116°
2026-04-25 13:52 44.06038 27.40470 34964 ft 454 kts 117°
2026-04-25 13:53 44.03010 27.48208 34959 ft 454 kts 116°
2026-04-25 13:53 43.99991 27.55901 34959 ft 453 kts 117°
2026-04-25 13:54 43.96958 27.63599 34962 ft 453 kts 117°
2026-04-25 13:54 43.93923 27.71275 34962 ft 453 kts 117°
2026-04-25 13:55 43.90900 27.78900 34958 ft 453 kts 117°
2026-04-25 13:55 43.87857 27.86561 34962 ft 453 kts 117°
2026-04-25 13:56 43.84807 27.94200 34966 ft 452 kts 117°
2026-04-25 13:56 43.81775 28.01772 34969 ft 452 kts 117°
2026-04-25 13:57 43.78714 28.09409 34974 ft 452 kts 117°
2026-04-25 13:57 43.75663 28.17016 34982 ft 451 kts 117°
2026-04-25 13:58 43.72623 28.24563 34988 ft 451 kts 117°
2026-04-25 13:58 43.69564 28.32149 34994 ft 451 kts 117°
2026-04-25 13:59 43.66515 28.39678 34997 ft 451 kts 117°
2026-04-25 13:59 43.63452 28.47232 35003 ft 450 kts 117°
2026-04-25 14:00 43.60901 28.53512 35010 ft 450 kts 117°
2026-04-25 14:00 43.57308 28.62321 35013 ft 450 kts 117°
2026-04-25 14:01 43.54240 28.69816 35015 ft 450 kts 117°
2026-04-25 14:01 43.51154 28.77335 35016 ft 450 kts 117°
2026-04-25 14:02 43.48069 28.84841 35020 ft 450 kts 117°
2026-04-25 14:02 43.44972 28.92355 35023 ft 450 kts 117°
2026-04-25 14:03 43.41892 28.99805 35019 ft 451 kts 118°
2026-04-25 14:03 43.38778 29.07312 35019 ft 451 kts 118°
2026-04-25 14:04 43.35664 29.14802 35024 ft 450 kts 118°
2026-04-25 14:04 43.32552 29.22272 35024 ft 450 kts 118°
2026-04-25 14:05 43.29449 29.29706 35019 ft 450 kts 118°
2026-04-25 14:05 43.26325 29.37163 35019 ft 450 kts 118°
2026-04-25 14:06 43.23195 29.44614 35020 ft 450 kts 118°
2026-04-25 14:06 43.20086 29.51996 35021 ft 449 kts 118°
2026-04-25 14:07 43.16956 29.59412 35029 ft 449 kts 118°
2026-04-25 14:07 43.13815 29.66834 35029 ft 449 kts 119°
2026-04-25 14:08 43.10678 29.74232 35029 ft 449 kts 119°
2026-04-25 14:08 43.07557 29.81572 35032 ft 448 kts 119°
2026-04-25 14:09 43.04416 29.88942 35038 ft 448 kts 119°
2026-04-25 14:09 43.01280 29.96271 35038 ft 448 kts 119°
2026-04-25 14:10 42.98133 30.03622 35032 ft 448 kts 119°
2026-04-25 14:10 42.94972 30.10971 35033 ft 448 kts 119°
2026-04-25 14:11 42.91829 30.18276 35038 ft 448 kts 120°
2026-04-25 14:11 42.88657 30.25615 35036 ft 448 kts 120°
2026-04-25 14:12 42.85489 30.32936 35037 ft 447 kts 120°
2026-04-25 14:12 42.82316 30.40248 35036 ft 447 kts 120°
2026-04-25 14:13 42.79167 30.47491 35041 ft 447 kts 120°
2026-04-25 14:13 42.75988 30.54780 35037 ft 447 kts 120°
2026-04-25 14:14 42.73561 30.62486 35033 ft 444 kts 99°
2026-04-25 14:14 42.72708 30.70747 35039 ft 443 kts 96°
2026-04-25 14:15 42.71907 30.79087 35039 ft 444 kts 96°
2026-04-25 14:15 42.71064 30.87418 35037 ft 444 kts 97°
2026-04-25 14:16 42.70202 30.95742 35036 ft 444 kts 97°
2026-04-25 14:16 42.69349 31.04011 35041 ft 444 kts 97°
2026-04-25 14:17 42.68475 31.12334 35040 ft 444 kts 97°
2026-04-25 14:17 42.67610 31.20586 35041 ft 443 kts 97°
2026-04-25 14:18 42.66728 31.28893 35045 ft 444 kts 97°
2026-04-25 14:18 42.65839 31.37202 35048 ft 443 kts 97°
2026-04-25 14:19 42.64950 31.45491 35043 ft 443 kts 97°
2026-04-25 14:19 42.64057 31.53741 35043 ft 443 kts 97°
2026-04-25 14:20 42.63153 31.62020 35046 ft 443 kts 97°
2026-04-25 14:20 42.62247 31.70304 35045 ft 443 kts 97°
2026-04-25 14:21 42.61332 31.78550 35044 ft 443 kts 97°
2026-04-25 14:21 42.60408 31.86836 35046 ft 444 kts 98°
2026-04-25 14:22 42.59489 31.95082 35047 ft 444 kts 98°
2026-04-25 14:22 42.58557 32.03366 35047 ft 444 kts 98°
2026-04-25 14:23 42.57636 32.11670 35046 ft 444 kts 98°
2026-04-25 14:23 42.56693 32.19902 35047 ft 444 kts 98°
2026-04-25 14:24 42.55739 32.28196 35049 ft 444 kts 98°
2026-04-25 14:24 42.54776 32.36474 35046 ft 444 kts 98°
2026-04-25 14:25 42.53973 32.43376 35049 ft 444 kts 98°
2026-04-25 14:25 42.52839 32.53013 35052 ft 445 kts 98°
2026-04-25 14:26 42.51864 32.61286 35050 ft 444 kts 98°
2026-04-25 14:26 42.50883 32.69582 35053 ft 445 kts 98°
2026-04-25 14:27 42.49897 32.77810 35058 ft 445 kts 99°
2026-04-25 14:27 42.48897 32.86117 35049 ft 445 kts 99°
2026-04-25 14:28 42.47898 32.94405 35052 ft 446 kts 99°
2026-04-25 14:28 42.46887 33.02702 35053 ft 446 kts 99°
2026-04-25 14:29 42.45870 33.10972 35057 ft 447 kts 99°
2026-04-25 14:29 42.44850 33.19234 35054 ft 447 kts 99°
2026-04-25 14:30 42.43819 33.27566 35059 ft 448 kts 99°
2026-04-25 14:30 42.42258 33.40057 35058 ft 448 kts 99°
2026-04-25 14:31 42.41198 33.48379 35055 ft 449 kts 99°
2026-04-25 14:31 42.40137 33.56661 35058 ft 449 kts 99°
2026-04-25 14:32 42.39072 33.65011 35061 ft 450 kts 99°
2026-04-25 14:32 42.38003 33.73385 35063 ft 451 kts 100°
2026-04-25 14:33 42.36930 33.81698 35056 ft 451 kts 100°
2026-04-25 14:33 42.35842 33.90080 35054 ft 452 kts 100°
2026-04-25 14:34 42.34754 33.98397 35059 ft 452 kts 100°
2026-04-25 14:34 42.33650 34.06773 35058 ft 452 kts 100°
2026-04-25 14:35 42.32548 34.15166 35065 ft 452 kts 100°
2026-04-25 14:35 42.31628 34.22143 35066 ft 453 kts 100°
2026-04-25 14:36 42.30510 34.30480 35061 ft 453 kts 100°
2026-04-25 14:36 42.29389 34.38855 35062 ft 453 kts 101°
2026-04-25 14:37 42.28251 34.47247 35061 ft 454 kts 101°
2026-04-25 14:37 42.27125 34.55588 35061 ft 454 kts 101°
2026-04-25 14:38 42.25999 34.63991 35071 ft 454 kts 101°
2026-04-25 14:38 42.24856 34.72389 35062 ft 454 kts 101°
2026-04-25 14:39 42.23696 34.80730 35076 ft 454 kts 101°
2026-04-25 14:39 42.22529 34.89120 35082 ft 454 kts 101°
2026-04-25 14:40 42.21355 34.97493 35091 ft 454 kts 101°
2026-04-25 14:40 42.20174 35.05877 35097 ft 455 kts 101°
2026-04-25 14:41 42.18996 35.14224 35098 ft 455 kts 101°
2026-04-25 14:41 42.17804 35.22624 35096 ft 455 kts 101°
2026-04-25 14:42 42.16811 35.29605 35090 ft 455 kts 101°
2026-04-25 14:42 42.15401 35.39354 35086 ft 455 kts 102°
2026-04-25 14:43 42.14183 35.47706 35078 ft 455 kts 102°
2026-04-25 14:43 42.12970 35.56105 35072 ft 456 kts 102°
2026-04-25 14:44 42.11751 35.64447 35072 ft 456 kts 102°
2026-04-25 14:44 42.10522 35.72849 35074 ft 456 kts 102°
2026-04-25 14:45 42.09312 35.81178 35078 ft 456 kts 102°
2026-04-25 14:45 42.08068 35.89578 35075 ft 456 kts 102°
2026-04-25 14:46 42.06821 35.97925 35080 ft 456 kts 102°
2026-04-25 14:46 42.05567 36.06311 35080 ft 457 kts 102°
2026-04-25 14:47 42.04519 36.13285 35080 ft 457 kts 102°
2026-04-25 14:47 42.03033 36.23070 35081 ft 456 kts 102°
2026-04-25 14:48 42.01770 36.31431 35086 ft 456 kts 102°
2026-04-25 14:48 42.00502 36.39737 35087 ft 456 kts 102°
2026-04-25 14:49 41.99219 36.48088 35092 ft 456 kts 102°
2026-04-25 14:49 41.97936 36.56407 35090 ft 456 kts 102°
2026-04-25 14:50 41.96638 36.64751 35089 ft 456 kts 103°
2026-04-25 14:50 41.95333 36.73103 35093 ft 456 kts 103°
2026-04-25 14:51 41.94027 36.81444 35097 ft 456 kts 103°
2026-04-25 14:51 41.92721 36.89721 35097 ft 456 kts 103°
2026-04-25 14:52 41.91406 36.98049 35097 ft 455 kts 103°
2026-04-25 14:52 41.90418 37.05003 35095 ft 456 kts 96°
2026-04-25 14:53 41.90201 37.14927 35099 ft 456 kts 91°
2026-04-25 14:53 41.90099 37.23451 35100 ft 456 kts 91°
2026-04-25 14:54 41.89973 37.31967 35110 ft 455 kts 91°
2026-04-25 14:54 41.89833 37.40423 35110 ft 455 kts 92°
2026-04-25 14:55 41.89692 37.48917 35104 ft 455 kts 91°
2026-04-25 14:55 41.89556 37.57403 35103 ft 455 kts 92°
2026-04-25 14:56 41.89425 37.65905 35107 ft 455 kts 92°
2026-04-25 14:56 41.89297 37.74403 35112 ft 455 kts 92°
2026-04-25 14:57 41.89172 37.82910 35110 ft 456 kts 91°
2026-04-25 14:57 41.89047 37.91387 35114 ft 456 kts 92°
2026-04-25 14:58 41.88922 37.99918 35112 ft 456 kts 92°
2026-04-25 14:58 41.88801 38.08386 35119 ft 456 kts 92°
2026-04-25 14:59 41.88681 38.16909 35126 ft 456 kts 92°
2026-04-25 14:59 41.88563 38.25425 35121 ft 456 kts 92°
2026-04-25 15:00 41.88448 38.33906 35120 ft 457 kts 92°
2026-04-25 15:00 41.88336 38.42442 35124 ft 457 kts 92°
2026-04-25 15:01 41.88226 38.50961 35126 ft 457 kts 92°
2026-04-25 15:01 41.88121 38.59481 35127 ft 457 kts 92°
2026-04-25 15:02 41.88018 38.67961 35127 ft 457 kts 92°
2026-04-25 15:02 41.87916 38.76504 35127 ft 458 kts 92°
2026-04-25 15:03 41.87814 38.85048 35125 ft 457 kts 92°
2026-04-25 15:03 41.87714 38.93581 35133 ft 458 kts 92°
2026-04-25 15:04 41.87616 39.02143 35146 ft 458 kts 92°
2026-04-25 15:04 41.87519 39.10634 35141 ft 458 kts 92°
2026-04-25 15:05 41.87421 39.19203 35140 ft 459 kts 92°
2026-04-25 15:06 41.87271 39.32045 35141 ft 458 kts 92°
2026-04-25 15:06 41.87171 39.40556 35142 ft 459 kts 92°
2026-04-25 15:07 41.87070 39.49119 35145 ft 459 kts 92°
2026-04-25 15:07 41.86969 39.57715 35146 ft 459 kts 92°
2026-04-25 15:08 41.86871 39.66251 35145 ft 460 kts 92°
2026-04-25 15:08 41.86772 39.74841 35148 ft 460 kts 92°
2026-04-25 15:09 41.86675 39.83366 35152 ft 460 kts 92°
2026-04-25 15:09 41.86466 39.96236 35148 ft 460 kts 94°
2026-04-25 15:10 41.85765 40.04765 35147 ft 458 kts 99°
2026-04-25 15:11 41.84542 40.17463 35144 ft 458 kts 98°
2026-04-25 15:11 41.84165 40.21682 34867 ft 452 kts 98°
2026-04-25 15:11 41.83779 40.25864 34603 ft 449 kts 98°
2026-04-25 15:12 41.82996 40.34085 34116 ft 444 kts 99°
2026-04-25 15:12 41.82602 40.38176 33837 ft 441 kts 99°
2026-04-25 15:12 41.82208 40.42255 33555 ft 440 kts 99°
2026-04-25 15:12 41.82080 40.43575 33443 ft 439 kts 99°
2026-04-25 15:13 41.81425 40.50320 32665 ft 432 kts 99°
2026-04-25 15:13 41.80652 40.58214 31623 ft 427 kts 99°
2026-04-25 15:13 41.80278 40.62145 31147 ft 425 kts 97°
2026-04-25 15:14 41.80303 40.66107 30802 ft 425 kts 83°
2026-04-25 15:14 41.80983 40.69942 30432 ft 423 kts 71°
2026-04-25 15:14 41.81977 40.73632 29919 ft 419 kts 69°
2026-04-25 15:14 41.83007 40.77283 29357 ft 417 kts 69°
2026-04-25 15:15 41.84022 40.80923 28844 ft 415 kts 69°
2026-04-25 15:15 41.85013 40.84543 28345 ft 411 kts 69°
2026-04-25 15:15 41.85975 40.88097 27865 ft 408 kts 69°
2026-04-25 15:15 41.86937 40.91667 27397 ft 405 kts 69°
2026-04-25 15:16 41.87894 40.95225 26908 ft 403 kts 69°
2026-04-25 15:16 41.88845 40.98770 26418 ft 401 kts 69°
2026-04-25 15:16 41.90718 41.05764 25486 ft 397 kts 69°
2026-04-25 15:17 41.92575 41.12719 24553 ft 395 kts 69°
2026-04-25 15:17 41.93499 41.16189 24076 ft 394 kts 69°
2026-04-25 15:17 41.94420 41.19649 23588 ft 393 kts 69°
2026-04-25 15:18 41.95338 41.23103 23044 ft 392 kts 69°
2026-04-25 15:18 41.97147 41.29928 22032 ft 388 kts 69°
2026-04-25 15:18 41.98052 41.33349 21533 ft 386 kts 68°
2026-04-25 15:19 41.98951 41.36752 21041 ft 384 kts 68°
2026-04-25 15:19 41.99243 41.37859 20888 ft 384 kts 68°
2026-04-25 15:19 42.00720 41.43463 20128 ft 380 kts 68°
2026-04-25 15:19 42.01599 41.46804 19684 ft 377 kts 68°
2026-04-25 15:20 42.02471 41.50123 19229 ft 376 kts 68°
2026-04-25 15:20 42.03341 41.53440 18788 ft 375 kts 68°
2026-04-25 15:20 42.04209 41.56750 18356 ft 374 kts 68°
2026-04-25 15:20 42.05075 41.60064 17875 ft 373 kts 68°
2026-04-25 15:21 42.05915 41.63302 17425 ft 368 kts 68°
2026-04-25 15:21 42.06751 41.66522 16988 ft 362 kts 68°
2026-04-25 15:21 42.07427 41.69751 16577 ft 357 kts 81°
2026-04-25 15:21 42.07447 41.73081 16208 ft 351 kts 93°
2026-04-25 15:22 42.07258 41.76334 15845 ft 345 kts 94°
2026-04-25 15:22 42.07058 41.79541 15480 ft 344 kts 94°
2026-04-25 15:22 42.06866 41.82761 15111 ft 345 kts 94°
2026-04-25 15:22 42.06682 41.85992 14719 ft 347 kts 94°
2026-04-25 15:23 42.06503 41.89203 14324 ft 349 kts 94°
2026-04-25 15:23 42.06321 41.92482 13922 ft 351 kts 94°
2026-04-25 15:23 42.06141 41.95739 13483 ft 345 kts 94°
2026-04-25 15:23 42.05962 41.98940 13061 ft 340 kts 94°
2026-04-25 15:24 42.05787 42.02074 12650 ft 334 kts 94°
2026-04-25 15:24 42.05614 42.05173 12238 ft 330 kts 94°
2026-04-25 15:24 42.05442 42.08230 11833 ft 325 kts 95°
2026-04-25 15:24 42.05387 42.09205 11706 ft 324 kts 95°
2026-04-25 15:25 42.05102 42.14229 11040 ft 317 kts 95°
2026-04-25 15:25 42.04990 42.16186 10780 ft 317 kts 95°
2026-04-25 15:25 42.04764 42.20122 10283 ft 319 kts 96°
2026-04-25 15:25 42.04593 42.23092 9922 ft 316 kts 96°
2026-04-25 15:26 42.04481 42.25040 9650 ft 314 kts 96°
2026-04-25 15:26 42.04495 42.27962 9198 ft 311 kts 83°
2026-04-25 15:26 42.04890 42.30804 8738 ft 305 kts 78°
2026-04-25 15:26 42.05335 42.33561 8270 ft 298 kts 78°
2026-04-25 15:27 42.05771 42.36277 7837 ft 295 kts 78°
2026-04-25 15:27 42.06196 42.38963 7434 ft 292 kts 78°
2026-04-25 15:27 42.07021 42.44232 6617 ft 285 kts 78°
2026-04-25 15:28 42.07429 42.46844 6221 ft 285 kts 78°
2026-04-25 15:28 42.07836 42.49462 5842 ft 284 kts 78°
2026-04-25 15:28 42.08215 42.52027 5486 ft 279 kts 79°
2026-04-25 15:28 42.08562 42.54579 5129 ft 275 kts 79°
2026-04-25 15:29 42.08919 42.57080 4807 ft 270 kts 78°
2026-04-25 15:29 42.09317 42.59504 4518 ft 257 kts 77°
2026-04-25 15:29 42.09692 42.61787 4207 ft 241 kts 77°
2026-04-25 15:29 42.10036 42.63924 3876 ft 227 kts 77°
2026-04-25 15:30 42.10358 42.65954 3635 ft 216 kts 77°
2026-04-25 15:30 42.10658 42.67875 3491 ft 204 kts 77°
2026-04-25 15:30 42.10945 42.69726 3458 ft 202 kts 77°
2026-04-25 15:30 42.11399 42.71473 3463 ft 200 kts 53°
2026-04-25 15:31 42.12464 42.72614 3429 ft 198 kts 16°
2026-04-25 15:31 42.13808 42.72708 3166 ft 195 kts 348°
2026-04-25 15:31 42.15137 42.72340 2875 ft 194 kts 347°
2026-04-25 15:31 42.16463 42.71991 2663 ft 195 kts 349°
2026-04-25 15:32 42.17804 42.71673 2509 ft 195 kts 349°
2026-04-25 15:32 42.19128 42.71311 2464 ft 194 kts 338°
2026-04-25 15:32 42.20150 42.70197 2464 ft 193 kts 297°
2026-04-25 15:33 42.20629 42.66684 2450 ft 187 kts 262°
2026-04-25 15:33 42.20242 42.65136 2405 ft 166 kts 245°
2026-04-25 15:33 42.19800 42.63764 2198 ft 155 kts 249°
2026-04-25 15:33 42.19488 42.62443 1939 ft 143 kts 257°
2026-04-25 15:34 42.19300 42.61130 1701 ft 143 kts 261°
2026-04-25 15:34 42.19141 42.59805 1445 ft 143 kts 261°
2026-04-25 15:34 42.18985 42.58487 1273 ft 143 kts 260°
2026-04-25 15:34 42.18873 42.57613 1159 ft 143 kts 260°
2026-04-25 15:35 42.18480 42.54532 801 ft 144 kts 260°
2026-04-25 15:35 42.18304 42.53202 653 ft 144 kts 259°
2026-04-25 15:35 42.18144 42.51862 501 ft 145 kts 261°
2026-04-25 15:36 42.17797 42.49192 150 ft 141 kts 260°
2026-04-25 15:36 42.17650 42.48022 146 ft 95 kts 260°
2026-04-25 15:36 42.17596 42.47553 144 ft 21 kts 276°
2026-04-25 15:37 42.17647 42.47468 145 ft 14 kts 339°
2026-04-25 15:37 42.17745 42.47419 145 ft 16 kts 338°
2026-04-25 15:37 42.17828 42.47375 146 ft 13 kts 338°
2026-04-25 15:37 42.17905 42.47301 146 ft 15 kts 297°
2026-04-25 15:38 42.17910 42.47160 146 ft 12 kts 259°
2026-04-25 15:38 42.17894 42.47036 146 ft 15 kts 262°
2026-04-25 15:38 42.17955 42.46944 146 ft 15 kts 333°
2026-04-25 15:38 42.18023 42.46899 146 ft 10 kts 332°
2026-04-25 15:39 42.18043 42.46816 146 ft 11 kts 257°
2026-04-25 15:39 42.18015 42.46706 146 ft 14 kts 251°
2026-04-25 15:39 42.17989 42.46601 146 ft 8 kts 251°
2026-04-25 15:39 42.17997 42.46531 146 ft 9 kts 313°
2026-04-25 15:40 42.18051 42.46494 146 ft 9 kts 11°
2026-04-25 15:40 42.18064 42.46513 146 ft 1 kts 71°
2026-04-25 15:40 42.18075 42.46544 146 ft 5 kts 69°
2026-04-25 15:40 42.18077 42.46554 146 ft 0 kts 69°